Weather History for Hilton Head Island, SC

Change the Weather History Date:

Wednesday, October 23, 2013

  Actual Average Record
Temperature  
Mean Temperature 66 °F -  
Max Temperature 73 °F 75 °F 84 °F (1981)
Min Temperature 59 °F 55 °F 38 °F (1974)
Cooling Degree Days 2    
Growing Degree Days 16 (Base 50)    
Moisture  
Dew Point 54 °F    
Average Humidity 75    
Maximum Humidity 100    
Minimum Humidity 31    
Precipitation  
Precipitation 0.00 in - - ()
Sea Level Pressure  
Sea Level Pressure 29.88 in    
Wind  
Wind Speed 5 mph (West)    
Max Wind Speed 17 mph    
Max Gust Speed 25 mph    
Visibility 9 miles    
Events      
Averages and records for this station are not official NWS values.
T = Trace of Precipitation, MM = Missing Value Source: NWS Daily Summary

Daily Weather History Graph

Daily Weather History Graph

Search for Another Location

Airport:

Trip Planner

Search our weather history database for the weather conditions in past years. The results will help you decide how hot, cold, wet, or windy it might be!

Date:

Astronomy

Oct. 23, 2013 Rise Set
Actual Time 7:32 AM EDT 6:41 PM EDT
Civil Twilight 7:07 AM EDT 7:05 PM EDT
Nautical Twilight 6:39 AM EDT 7:34 PM EDT
Astronomical Twilight 6:10 AM EDT 8:03 PM EDT
Moon 10:19 PM EDT (10/23) 11:39 AM EDT (10/23)
Length of Visible Light 11h 58m
Length of Day
11h 08m
Waning Gibbous, 79% of the Moon is Illuminated
Oct 23
Waning Gibbous
Oct 26
Last Quarter
Nov 3
New
Nov 10
First Quarter
Nov 17
Full

Hourly Weather History & Observations

Time (EDT) Temp. Dew Point Humidity Pressure Visibility Wind Dir Wind Speed Gust Speed Precip Events Conditions
12:15 AM 64.4 °F 62.6 °F 94% 29.86 in 7.0 mi Calm Calm - 0.00 in   Mostly Cloudy
12:35 AM 62.6 °F 62.6 °F 100% 29.85 in 5.0 mi Calm Calm - 0.00 in   Mostly Cloudy
12:55 AM 64.4 °F 64.4 °F 100% 29.84 in 4.0 mi Calm Calm - 0.00 in   Mostly Cloudy
1:15 AM 64.4 °F 62.6 °F 94% 29.83 in 5.0 mi East 3.5 mph - 0.00 in   Mostly Cloudy
1:35 AM 64.4 °F 64.4 °F 100% 29.83 in 6.0 mi Calm Calm - 0.00 in   Mostly Cloudy
1:55 AM 64.4 °F 64.4 °F 100% 29.83 in 5.0 mi Calm Calm - 0.00 in   Mostly Cloudy
2:15 AM 64.4 °F 64.4 °F 100% 29.83 in 8.0 mi Calm Calm - 0.00 in   Mostly Cloudy
2:35 AM 64.4 °F 64.4 °F 100% 29.83 in 7.0 mi WSW 4.6 mph - 0.00 in   Mostly Cloudy
2:55 AM 64.4 °F 64.4 °F 100% 29.83 in 10.0 mi SSW 3.5 mph - 0.00 in   Scattered Clouds
3:15 AM 64.4 °F 64.4 °F 100% 29.82 in 10.0 mi WSW 3.5 mph - 0.00 in   Mostly Cloudy
3:35 AM 64.4 °F 64.4 °F 100% 29.82 in 10.0 mi West 3.5 mph - 0.00 in   Mostly Cloudy
3:55 AM 64.4 °F 62.6 °F 94% 29.82 in 10.0 mi WSW 4.6 mph - 0.00 in   Partly Cloudy
4:15 AM 62.6 °F 62.6 °F 100% 29.82 in 10.0 mi WSW 3.5 mph - 0.00 in   Clear
4:35 AM 62.6 °F 62.6 °F 100% 29.81 in 10.0 mi Calm Calm - 0.00 in   Clear
4:55 AM 62.6 °F 62.6 °F 100% 29.81 in 10.0 mi WSW 3.5 mph - 0.00 in   Clear
5:15 AM 62.6 °F 60.8 °F 94% 29.81 in 10.0 mi WSW 4.6 mph - 0.00 in   Clear
5:35 AM 62.6 °F 60.8 °F 94% 29.82 in 10.0 mi West 5.8 mph - 0.00 in   Clear
5:55 AM 62.6 °F 60.8 °F 94% 29.83 in 6.0 mi West 6.9 mph - 0.00 in   Mostly Cloudy
6:15 AM 62.6 °F 60.8 °F 94% 29.83 in 6.0 mi West 8.1 mph - 0.00 in   Overcast
6:35 AM 62.6 °F 60.8 °F 94% 29.84 in 8.0 mi West 9.2 mph - 0.00 in   Overcast
6:50 AM 60.8 °F 59.0 °F 94% 29.84 in 7.0 mi WNW 11.5 mph 20.7 mph N/A   Overcast
7:50 AM 62.6 °F 60.8 °F 94% 29.84 in 7.0 mi West 6.9 mph - N/A   Mostly Cloudy
8:50 AM 62.6 °F 60.8 °F 94% 29.87 in 10.0 mi WSW 9.2 mph - N/A   Mostly Cloudy
9:50 AM 64.4 °F 57.2 °F 77% 29.87 in 10.0 mi WSW 11.5 mph - N/A   Clear
10:50 AM 66.2 °F 53.6 °F 64% 29.88 in 10.0 mi WNW 11.5 mph 18.4 mph N/A   Clear
11:50 AM 68.0 °F 50.0 °F 52% 29.88 in 10.0 mi WNW 13.8 mph 21.9 mph N/A   Clear
12:50 PM 68.0 °F 50.0 °F 52% 29.87 in 10.0 mi WNW 12.7 mph 19.6 mph N/A   Clear
1:50 PM 71.6 °F 46.4 °F 41% 29.84 in 10.0 mi WNW 11.5 mph 25.3 mph N/A   Clear
2:50 PM 71.6 °F 48.2 °F 43% 29.84 in 10.0 mi West 17.3 mph 24.2 mph N/A   Clear
3:50 PM 73.4 °F 44.6 °F 36% 29.83 in 10.0 mi West 15.0 mph 25.3 mph N/A   Clear
4:50 PM 71.6 °F 39.2 °F 31% 29.85 in 10.0 mi WNW 13.8 mph 23.0 mph N/A   Clear
6:50 PM 69.8 °F 41.0 °F 35% 29.87 in 10.0 mi West 9.2 mph 17.3 mph N/A   Clear
7:50 PM 60.8 °F 42.8 °F 52% 29.93 in 10.0 mi SW 4.6 mph - N/A   Clear
9:15 PM 60.8 °F 42.8 °F 52% 29.99 in 10.0 mi West 5.8 mph - 0.00 in   Clear
9:35 PM 60.8 °F 41.0 °F 48% 29.99 in 10.0 mi West 6.9 mph - 0.00 in   Clear
9:55 PM 60.8 °F 39.2 °F 45% 30.00 in 10.0 mi NW 5.8 mph - 0.00 in   Clear
10:15 PM 60.8 °F 39.2 °F 45% 30.02 in 10.0 mi NW 6.9 mph 24.2 mph 0.00 in   Clear
10:35 PM 60.8 °F 37.4 °F 42% 30.03 in 10.0 mi WNW 9.2 mph - 0.00 in   Clear
10:55 PM 60.8 °F 39.2 °F 45% 30.03 in 10.0 mi WNW 9.2 mph - 0.00 in   Clear
11:15 PM 60.8 °F 39.2 °F 45% 30.04 in 10.0 mi WNW 9.2 mph - 0.00 in   Clear
11:35 PM 60.8 °F 39.2 °F 45% 30.05 in 10.0 mi NNW 8.1 mph - 0.00 in   Clear
11:55 PM 59.0 °F 39.2 °F 48% 30.06 in 10.0 mi NW 6.9 mph 17.3 mph 0.00 in   Clear